Volver al catálogo

COSMOS 249 DEB

ActivoLEO
NORAD 6752·DEBRIS·🇷🇺 Russia

Lanzado Oct 20, 1968 desde Baikonur Cosmodrome

Loading…

Próximos Pases (próximas 24 horas)

TLE

ActualizadoSource: Space-Track

Época: Sep 14, 2026, 02:56 UTC

1 06752U 68091CJ  26257.12279993  .00001038  00000-0  99931-3 0  9994
2 06752  62.2746 270.7841 0640036 158.3968 204.5396 13.17610051670981

Sigue COSMOS 249 DEB en tiempo real con AllMySat

Download on the App Store